Regional Weather Roundup
Issued by NWS Grand Forks, ND

Home | Current Version | Previous Version | Text Only | Print | Product List | Glossary On
Versions: 1 2 3 4 5 6 7 8 9 10 11 12 13 14 15 16 17 18 19 20 21 22 23 24 25 26 27 28 29 30 31 32 33 34 35 36 37 38 39 40 41 42 43 44 45 46 47 48 49 50
000
ASUS43 KFGF 210231
RWRFGF
PRAIRIE TO PINES  WEATHER ROUNDUP
NATIONAL WEATHER SERVICE EASTERN NORTH DAKOTA/GRAND FORKS ND
900 PM CDT FRI APR 20 2018

 **SATELLITE DATA USED TO AUGMENT SKY COVER AT AUTOMATED STATIONS**
 *****  WEATHER ACROSS EASTERN NORTH DAKOTA  *****

CITY           SKY/WX    TMP DP  RH WIND       PRES   REMARKS
GRAND FORKS    FAIR      44  34  67 S5        30.35R
GRAND FRKS AFB FAIR      45  31  58 S6        30.34S
GRAND FRKS NWS   N/A     46  34  64 S6        30.32S
DEVILS LAKE    FAIR      42  33  70 SE10      30.31R
FARGO          FAIR      49  38  65 S9        30.36R
WAHPETON ARPT  FAIR      41  34  75 S9        30.39R
$$

 ***** WEATHER ACROSS CENTRAL AND WESTERN NORTH DAKOTA  *****

CITY           SKY/WX    TMP DP  RH WIND       PRES   REMARKS
BISMARCK       FAIR      51  32  48 S12       30.28R
MINOT          FAIR      51  36  56 SE12      30.21R
JAMESTOWN      FAIR      45  37  73 S6        30.31R
MINOT AFB      FAIR      46  37  70 SE10      30.19S
GARRISON         N/A     45  31  58 S9        30.22R
WILLISTON      FAIR      57  29  34 SE8       30.13R
DICKINSON      FAIR      49  36  61 S16       30.17R
HETTINGER      CLOUDY    46  37  71 S23G29    30.21R
$$

 *****  OTHER AIRPORT OBSERVATIONS IN OUR AREA  *****

CITY           SKY/WX    TMP DP  RH WIND       PRES   REMARKS
WALHALLA       FAIR      45  30  57 SE6       30.33R
GRAFTON AIRPOR FAIR      39  32  75 S6        30.37R
VALLEY CITY AR FAIR      46  39  76 SE10      30.35R
CANDO          FAIR      41  34  75 SE10      30.32R
CAVALIER APRT    N/A     46  34  61 S9        30.33R
GWINNER          N/A     43  39  87 SE7       30.36R
SHEYENNE NWR     N/A     45  40  84 S7        29.95S
ROLLA          FAIR      45  36  70 S10       30.28R
 ***** THE ABOVE OBSERVATIONS ARE NON NWS ARE NOT QUALITY
       CONTROLLED AND MAY MIS-REPORT RAIN FOR SNOW...
$$

  *****  WEATHER ACROSS NORTHERN MINNESOTA  *****

CITY           SKY/WX    TMP DP  RH WIND       PRES   REMARKS
FLAG ISLAND    FAIR      39  28  65 SE3       30.34S
WARROAD        FAIR      46  34  61 W5        30.35S
ROSEAU         FAIR      48  36  61 W5        30.35S
HALLOCK        FAIR      43  37  81 S5        30.35S
THF RVR FALLS  FAIR      48  36  63 W3        30.37R
BAUDETTE       FAIR      47  30  51 CALM      30.35R
WASKISH        FAIR      37  28  70 CALM      30.36S
CROOKSTON      FAIR      45  34  65 S3        30.37R
STEPHEN NDAWN    N/A     45  39  81 SE3         N/A
GREENBUSH NDAW   N/A     45  37  76 S3          N/A
$$
  *****  WEATHER ACROSS CENTRAL AND WEST MINNESOTA  *****

CITY           SKY/WX    TMP DP  RH WIND       PRES   REMARKS
FOSSTON        FAIR      39  28  65 S6        30.38R
BEMIDJI        FAIR      46  25  44 S5        30.37R
PARK RAPIDS    FAIR      43  25  49 S6        30.37S
ELBOW LAKE     FAIR      40  37  90 S9        30.41R
WADENA         FAIR      39  27  60 CALM      30.40R
DETROIT LAKES  FAIR      45  21  39 CALM      30.40R
MOORHEAD       FAIR      46  37  71 S8        30.39R
FERGUS FALLS   FAIR      41  36  81 S6        30.39R
MORRIS MN      FAIR      39  34  81 S9        30.41R
STAPLES        FAIR      43  21  42 S3        30.40S
$$
  *****  WEATHER ELSEWHERE ACROSS MINNESOTA  *****

CITY           SKY/WX    TMP DP  RH WIND       PRES   REMARKS
DULUTH         FAIR      47  25  42 SW8       30.38S
INTRNTL FALLS  FAIR      40  25  55 CALM      30.34S
ELY            FAIR      37  21  52 CALM      30.36R
CLOQUET        FAIR      46  16  29 SW5       30.39S
WHEATON        FAIR      39  36  87 SE7       30.42R
BRAINERD       FAIR      42  23  46 S8        30.40S
HIBBING        FAIR      38  18  44 SW3       30.36R
ALEXANDRIA     FAIR      44  35  70 S8        30.41R
SAINT CLOUD    FAIR      41  26  55 SW6       30.43R
MINNEAPOLIS    MOCLDY    48  20  32 SW6       30.44R
$$

  *****  WEATHER ACROSS SOUTH DAKOTA  *****

CITY           SKY/WX    TMP DP  RH WIND       PRES   REMARKS
SIOUX FALLS    CLOUDY    42  36  79 E7        30.38R
BROOKINGS      MOCLDY    40  36  86 SE8       30.39R
WATERTOWN      FAIR      42  38  85 SE6       30.37R
HURON          CLOUDY    44  37  76 SE10      30.35R
SISSETON         N/A     43  39  86 S7        30.37R
ABERDEEN       FAIR      45  38  76 S7        30.35S
MITCHELL       CLOUDY    41  36  82 E7        30.37R
PIERRE         LGT RAIN  43  41  93 S13       30.33R FOG
MOBRIDGE       FAIR      48  36  63 S13       30.27R
RAPID CITY     CLOUDY    39  38  96 SE13      30.22S
$$

  *****  SOME WEATHER IN NEARBY STATES *****

CITY           SKY/WX    TMP DP  RH WIND       PRES   REMARKS
GLASGOW MT     FAIR      63  33  32 E3        30.06S
GREAT FALLS MT FAIR      60  20  21 SW3       30.05S
CHEYENNE WY    LGT SNOW  32  32 100 SE16      30.06R FOG     WCI  21
SCOTTSBLUFF NE LGT RAIN  38  32  79 SE14      30.17R
OMAHA NE       FAIR      57  28  33 E10       30.31S
DES MOINES IA  CLOUDY    56  25  30 E6        30.37R
DAVENPORT IA   FAIR      51  22  31 E6        30.42R
CHICAGO IL     MOCLDY    49  11  21 E6        30.44R
EAU CLAIRE WI  FAIR      41  19  41 CALM      30.42S
LA CROSSE WI   FAIR      45  30  55 CALM      30.44R
$$

  *****  SOME NATIONAL WEATHER *****

CITY           SKY/WX    TMP DP  RH WIND       PRES   REMARKS
LA GUARDIA NY  FAIR      44  24  45 N13       30.34R
RALEIGH NC     FAIR      50  32  50 CALM      30.34R
ATLANTA GA     FAIR      60  35  39 SE3       30.29R
NEW ORLEANS LA FAIR      62  47  57 E6        30.19R
OKLAHOMA CITY  MOCLDY    59  35  40 SE22      30.05R
ALBUQUERQUE NM MOCLDY    56  19  23 W18       29.97R
SALT LAKE CITY FAIR      61  33  35 NW6       30.02R
LOS ANGELES CA FAIR      60  51  72 W13       30.07R
BOISE ID       FAIR      65  23  20 NW12      30.07S
SEATTLE WA     CLOUDY    56  36  47 W7        30.16F
$$

*** WEATHER ACROSS MANITOBA...SASKATCHEWAN AND ONTARIO ***
                ***ONTARIO***

CITY           SKY/WX    TMP DP  RH WIND       PRES   REMARKS
GERALDTON      CLEAR     37  14  38 CALM      30.34R
THUNDER BAY    MOCLDY    39  25  56 NE2       30.38R
SIOUX LOOKOUT  MOCLDY    36  18  48 CALM      30.34R
TORONTO        CLEAR     37  23  56 N7        30.42F
BIG TROUT LK   CLEAR     39  19  45 SE7       30.34S
PICKLE LAKE    PTCLDY    46  21  36 E7        30.33R
DRYDEN         CLEAR     48  18  29 W5        30.34R
KENORA         MOCLDY    48  18  29 S7        30.34S
$$
                *** MANITOBA***

CITY           SKY/WX    TMP DP  RH WIND       PRES   REMARKS
BRANDON        PTCLDY    46  34  61 SE9       30.25S
DAUPHIN        CLEAR     48  34  57 S6        30.23S
ISLAND LAKE    CLEAR     45  21  39 CALM      30.26R
PILOT MOUND      N/A     41  32  70 SE9         N/A
THE PAS        PTCLDY    43  28  56 SE12      30.13S
THOMPSON       MOCLDY    46  19  34 S6        30.16S
WINNIPEG       PTCLDY    50  34  53 S14       30.31R
LYNN LAKE      PTCLDY    46  23  39 S8        30.03R
CHURCHILL      MOCLDY    41  30  65 S14       30.08F
GILLAM         PTCLDY    46  21  36 S6        30.21S
$$
                ***SASKATCHEWAN***

CITY           SKY/WX    TMP DP  RH WIND       PRES   REMARKS
ESTEVAN        PTCLDY    46  34  61 SE10      30.16S
KINDERSLEY     MOCLDY    54  36  50 NW5       30.00S
LLOYDMINSTER   MOCLDY    50  36  57 SW6       30.00S
PRINCE ALBERT  PTCLDY    39  32  75 E5        30.08S
REGINA         PTCLDY    48  41  76 E10       30.12S
YORKTON        CLEAR     41  34  75 SE10      30.18S
N. BATTLEFORD  CLEAR     48  39  71 NE7       30.03S
LA RONGE       CLEAR     54  32  43 S9        30.00R
SASKATOON      MOCLDY    55  39  54 SE10      30.02S
SWIFT CURRENT  CLEAR     52  39  62 S12       30.03S
$$
NOTE: THESE ARE AUTOMATED STATIONS WITH LIMITED QUALITY CONTROL
      "FAIR" INDICATES FEW OR NO CLOUDS BELOW 12,000 FEET WITH NO
      SIGNIFICANT WEATHER AND/OR OBSTRUCTIONS TO VISIBILITY.
      SKY/WX - SKY CONDITION AND SIGNIFICANT WEATHER.
      TMP - AIR TEMPERATURE.    DP   - DEWPOINT TEMPERATURE.
      RH  - RELATIVE HUMIDITY.  PRES - PRESSURE.
      HX  - HEAT INDEX.         WCI  - WIND CHILL INDEX.
$




USA.gov is the U.S. government's official web portal to all federal, state and local government web resources and services.